ROMMA est une association bénévole à but non lucratif. Votre soutien est indispensable : ADHERER à ROMMA ou FAIRE un DON

Chambon - (38, Isère)

Oisans (2460 m)   Longitude: 06° 10' 42" E   Latitude: 45° 01' 32" N Station partenaire n°803
 

Détail journalier du     <<     >>

Température Humidité Vent Dir Rafale Dir. rafale Neige 1 Neige 2
Heure (°C) (%) (km/h) (km/h) (cm) (cm)
01:00 8.9853N11N52
02:00 8.9852SE8NO52
03:00 9.0843S7NO52
04:00 9.2813NE6NE51
05:00 9.3812NE6NE52
06:00 9.2805S14SSO51
07:00 8.8824N12SSO52
08:00 8.9822N6N51
09:00 9.1823N9N51
10:00 9.0853N10ONO51
11:00 10.1822N9N41
12:00 9.9793N10NNE01
13:00 9.8795NNE12NNE31
14:00 10.4785N11O21
15:00 10.0835O11O41
16:00 9.4845OSO11OSO41
17:00 9.5844SSO10SSO41
18:00 10.0853SO7SO41
19:00 9.8892OSO12O41
20:00 9.4882OSO9OSO51
21:00 8.9912SE6OSO51
22:00 9.0893SE15SSO51
23:00 9.1854S11S51
minuit 9.0843SO5SO41

Graphique du 28-08-2019

 

Serveur OMMA